Helicity
50 49 38 32 31 27 17 12 11 15 21 23 30 33 24 15 36 51 25 80 119 163 166 102 55 22 -20 -1 27 38 19 36 18 13 40 5 63 92 101 155 193 142 174 134 106
41 39 40 28 22 23 15 10 11 6 3 6 19 35 54 59 18 18 82 105 122 132 93 30 -11 -19 -9 24 25 4 15 20 16 86 113 89 74 70 80 117 121 143 128 120 120
35 33 34 23 20 24 15 6 -0 -4 3 19 33 32 60 45 34 28 54 93 110 125 74 40 14 -24 -5 11 32 40 62 132 110 114 112 111 102 33 84 110 132 150 130 128 126
39 27 20 10 11 12 3 -0 5 7 2 6 40 57 35 58 2 36 72 108 121 134 70 26 15 -11 15 33 24 74 68 50 91 100 111 118 124 152 192 158 145 149 143 135 133
37 19 5 -3 6 7 4 3 10 13 -3 22 65 55 75 4 27 67 89 96 93 51 11 3 -8 9 24 47 91 97 102 97 117 142 154 155 161 169 171 153 162 143 162 154 137
36 18 -2 -3 3 -3 1 3 7 -2 -6 89 102 76 75 44 79 66 70 46 47 24 -14 -14 4 79 27 -9 -14 108 160 153 131 141 132 163 149 104 133 144 156 158 170 157 160
28 11 -9 -6 -7 -17 -4 14 9 -4 44 93 86 88 82 57 66 58 40 34 37 35 -19 14 16 17 27 73 104 142 124 120 107 104 166 127 94 165 159 146 150 156 151 159 155
39 26 4 -2 -6 -29 17 22 18 41 86 108 109 56 23 64 50 39 45 21 23 11 14 53 26 39 23 104 54 54 74 54 95 131 112 61 159 175 174 187 170 178 181 165 151
44 22 9 9 5 29 33 36 50 69 125 119 88 8 6 49 28 48 30 3 23 -0 6 4 34 52 64 45 28 72 8 92 113 78 100 99 260 277 214 240 230 209 193 185 198
49 28 16 10 35 47 70 69 67 97 99 82 50 -11 16 15 46 64 25 10 -27 14 19 1 7 25 23 13 7 45 49 71 95 153 140 192 377 309 268 270 219 177 197 207 200
64 55 33 24 39 55 75 63 7 -11 97 27 24 14 -10 32 30 14 40 43 -0 -12 23 10 33 37 8 -2 -1 19 43 81 147 138 152 173 288 246 240 195 174 211 225 199 202
62 45 34 40 73 87 79 50 -13 -6 42 17 14 17 2 62 -11 57 92 2 -5 24 23 49 63 34 31 35 34 39 43 88 126 141 106 170 197 281 237 232 240 263 224 200 204
69 56 65 69 79 84 51 -10 58 36 -1 12 4 23 15 43 20 54 60 -6 31 61 62 92 55 32 29 46 22 42 32 64 75 208 118 135 117 305 243 221 219 230 194 207 235
69 66 70 44 61 52 10 38 36 18 7 9 4 8 9 -21 4 21 -0 -15 7 25 42 56 43 34 30 45 16 25 78 62 70 105 120 152 118 293 300 241 232 219 230 220 221
54 64 68 61 36 30 17 34 24 -4 -12 4 -1 5 12 -4 -20 -1 -3 17 29 23 13 55 36 48 46 34 26 67 52 63 54 72 101 172 132 435 383 292 252 283 231 240 242
43 47 59 67 7 -5 23 31 18 -8 12 -0 -5 -8 15 26 10 3 5 20 10 34 80 57 38 41 29 7 23 39 29 98 74 80 61 377 215 356 314 257 400 301 273 252 215
61 36 51 71 -19 11 21 29 12 26 -3 3 -0 -4 10 7 16 11 24 40 23 15 55 48 46 39 18 -5 50 11 19 69 69 98 203 276 151 436 524 364 335 295 288 224 169
71 52 31 44 36 39 23 29 15 -12 -13 -8 -2 10 7 -7 19 19 21 39 38 16 36 33 63 31 24 43 32 25 8 48 89 102 79 234 229 496 475 326 258 258 255 196 154
87 32 26 43 58 46 22 21 5 -11 -23 -11 -5 -11 14 18 13 27 42 34 32 25 31 32 68 52 58 38 18 62 52 72 79 31 117 198 354 415 341 308 264 257 230 177 127
52 35 26 74 64 35 33 8 -3 -9 -25 -31 -32 -22 -1 20 26 24 26 28 33 25 13 43 40 64 73 42 61 49 71 55 71 80 123 145 178 461 394 397 328 264 216 158 136
76 53 49 88 68 18 28 17 4 8 20 4 -22 9 19 35 32 36 40 42 34 29 15 19 36 93 60 65 72 78 80 100 92 122 180 184 264 375 533 410 316 220 221 161 145
89 63 68 87 24 26 19 21 21 2 13 12 12 4 31 45 49 42 39 40 35 25 28 34 31 56 108 114 82 102 109 105 124 183 187 220 320 387 388 314 279 231 200 163 158
86 75 69 79 39 27 20 21 15 -15 -13 14 21 13 37 52 58 47 51 50 45 36 31 40 70 54 120 104 111 111 195 148 158 214 113 194 293 412 259 376 277 255 181 150 161
102 77 69 50 58 31 23 14 6 3 -1 4 21 26 45 55 56 67 67 59 59 45 50 49 63 68 71 113 161 169 189 151 165 195 224 201 332 387 390 384 271 217 181 165 154
125 82 88 40 43 45 44 23 14 3 2 2 17 16 35 59 75 74 81 76 73 65 56 68 74 97 68 94 126 143 115 164 196 169 327 215 255 242 441 316 228 203 206 166 146
109 73 77 83 70 53 44 21 19 20 9 19 18 47 40 56 67 82 97 85 78 83 75 84 112 104 98 129 133 165 123 138 173 171 223 209 253 459 341 244 207 199 200 152 119
100 91 106 84 59 63 55 40 30 49 27 31 43 53 60 64 72 97 112 135 148 106 101 93 100 120 139 158 122 77 147 202 275 267 276 253 421 335 299 234 195 188 183 146 101
Wind_Speed
28 31 30 30 34 35 38 42 44 46 45 45 45 43 42 39 33 40 26 24 24 19 23 31 37 39 45 47 36 32 46 46 27 32 40 32 39 40 46 46 47 46 46 46 47
28 31 32 32 36 38 42 46 48 49 50 49 47 43 33 29 50 11 18 19 20 19 26 30 38 41 42 36 20 30 41 32 26 45 43 41 42 42 43 47 49 48 48 49 51
30 33 33 34 39 42 48 50 51 52 50 45 39 33 29 26 33 22 14 16 18 21 26 31 37 47 47 24 23 26 43 47 44 47 48 48 45 31 31 47 47 47 48 50 53
31 33 36 40 46 48 51 52 50 47 42 39 32 29 28 31 36 19 16 17 20 21 29 37 39 39 37 43 45 51 47 45 46 43 41 41 41 49 47 40 41 44 46 51 56
32 34 37 45 50 52 53 51 48 44 42 36 29 28 30 27 27 19 18 18 23 24 31 39 46 45 44 52 53 52 46 44 43 43 43 42 42 43 45 41 42 44 48 54 59
29 30 34 46 50 52 52 49 47 46 45 30 28 24 34 20 20 18 19 16 15 18 32 42 50 53 50 41 37 45 48 45 41 39 37 39 38 37 41 39 41 44 49 54 61
21 17 18 31 43 50 51 47 45 46 36 24 24 24 22 11 19 16 15 16 12 14 46 27 36 32 44 48 50 49 43 39 33 29 31 34 43 39 37 38 43 46 50 55 60
13 8 16 24 25 37 46 46 49 42 31 26 25 24 11 18 16 18 17 14 16 19 37 19 35 38 39 46 40 35 34 29 33 26 27 29 36 37 35 39 44 48 53 57 62
10 7 10 12 6 35 49 48 44 40 31 27 22 11 16 33 19 21 23 20 15 25 31 35 39 41 43 37 31 23 24 31 34 28 27 27 39 35 34 38 43 48 53 60 67
10 8 3 4 25 35 45 44 39 32 34 31 19 25 21 21 20 22 24 26 31 16 36 35 35 35 31 24 28 32 26 31 33 43 32 36 39 36 33 37 42 48 56 64 71
9 9 3 13 26 34 44 44 41 36 37 31 25 28 26 20 23 29 25 19 32 36 35 37 34 36 34 31 29 30 30 32 35 35 37 39 32 32 32 36 42 50 59 66 74
12 14 15 24 31 36 36 28 17 27 40 42 38 33 31 23 32 31 24 33 35 34 34 36 41 37 37 35 30 31 33 37 36 35 37 34 31 31 33 38 46 55 61 69 75
19 23 28 35 32 32 23 11 28 26 37 41 39 35 31 30 34 33 31 37 42 42 40 35 37 38 40 41 34 31 36 39 39 38 35 37 32 31 33 39 45 53 57 67 77
27 27 31 32 27 31 9 25 28 27 33 33 34 36 31 32 36 40 42 37 36 36 38 39 39 39 39 42 43 32 42 39 37 38 46 35 55 35 34 41 47 54 63 73 78
30 34 35 38 20 20 21 28 29 10 30 33 37 30 38 36 33 41 41 43 41 40 33 35 39 46 43 41 43 41 44 42 37 32 45 37 49 49 39 46 48 60 67 74 78
29 32 31 31 25 26 29 31 29 28 28 30 34 35 36 41 40 36 39 40 37 41 45 37 36 40 43 38 33 38 38 36 37 38 45 47 51 48 49 49 54 61 69 78 80
23 25 34 32 26 33 31 31 29 31 24 28 32 35 36 39 38 39 43 46 40 37 39 34 39 38 46 41 35 53 60 48 47 47 58 46 49 53 47 53 57 66 76 78 81
27 33 25 28 31 35 32 30 28 25 28 27 31 34 34 38 38 38 34 39 49 43 38 39 35 42 47 46 42 51 54 55 52 60 58 45 54 55 46 50 57 67 73 77 83
31 28 31 30 32 35 32 28 24 24 27 28 31 33 35 36 36 34 40 38 45 50 42 43 36 35 42 44 43 48 52 44 47 46 54 51 54 47 45 54 64 74 77 81 84
30 29 28 31 32 35 30 22 23 22 24 29 34 35 37 39 35 35 36 38 39 42 37 39 35 34 38 35 41 46 46 49 50 60 66 67 62 64 54 61 70 78 81 82 82
33 34 30 31 33 33 26 21 24 26 25 22 32 38 39 37 38 36 36 35 37 38 35 36 33 37 36 37 43 44 47 47 47 47 61 70 73 56 59 67 74 76 78 82 79
34 37 31 32 33 29 24 24 27 27 28 28 37 38 39 38 37 34 33 36 34 36 37 38 32 35 40 37 35 37 44 44 52 56 51 55 64 48 59 66 70 75 77 76 72
33 30 31 33 33 26 25 22 23 23 25 34 36 38 36 36 34 33 32 33 32 33 36 38 35 39 38 39 37 39 41 39 43 47 52 61 69 47 56 67 71 76 76 74 73
36 35 34 33 33 24 19 22 22 25 27 32 34 36 36 35 36 33 31 31 32 31 33 32 32 33 36 41 43 39 40 36 39 51 56 55 63 55 65 71 72 74 74 74 73
37 38 36 38 34 22 23 19 20 25 29 30 33 32 34 36 35 35 32 30 30 29 29 30 33 36 30 32 33 35 35 33 36 38 54 59 64 66 65 68 70 71 73 73 74
41 38 33 33 26 18 27 22 18 24 27 28 30 32 33 36 36 37 32 28 30 28 29 29 36 40 43 39 38 39 32 34 36 41 45 53 63 57 60 64 69 72 69 72 70
38 35 37 37 33 35 30 21 19 19 28 31 30 32 33 35 36 38 36 34 30 27 29 31 35 43 44 44 45 39 39 35 44 45 52 64 61 59 63 67 69 67 66 69 65
Wind_Direction
199 187 183 185 179 175 169 161 158 150 145 137 132 131 130 132 138 115 136 154 160 194 186 157 138 129 105 98 120 140 90 84 122 133 113 133 46 14 32 26 21 33 29 28 21
207 194 186 184 173 169 162 153 148 141 137 131 126 128 151 157 83 60 169 180 177 187 167 153 129 112 106 77 153 148 131 143 164 71 65 45 52 52 44 27 26 29 27 23 17
209 198 190 186 170 162 148 142 139 133 130 126 137 157 175 178 140 153 251 208 191 187 167 155 135 98 105 171 173 167 122 72 50 65 69 63 56 83 67 29 30 26 23 20 16
215 206 191 177 154 148 143 135 133 128 120 122 155 179 193 174 140 192 238 211 186 180 156 134 131 120 131 115 111 90 83 85 85 74 72 60 62 45 39 46 41 33 27 18 11
224 213 199 173 139 134 132 129 126 122 113 141 176 185 179 166 164 223 226 206 175 171 146 129 112 109 105 87 62 70 70 63 68 65 62 60 46 43 36 38 32 24 16 10 6
232 228 211 118 123 122 129 130 124 118 108 170 179 199 172 9 216 231 213 208 209 189 142 119 91 82 80 103 92 86 76 71 66 61 53 41 35 26 25 28 21 14 9 5 2
256 264 55 80 99 114 129 144 136 123 150 191 199 185 11 248 224 245 233 214 239 232 94 170 140 140 90 64 80 81 66 68 69 60 58 43 19 22 22 18 9 6 4 3 0
283 337 49 67 68 85 159 152 133 135 164 184 197 179 316 225 282 301 246 285 309 326 35 326 41 32 68 81 87 70 79 62 43 50 34 23 13 14 15 9 4 2 360 359 359
292 356 35 48 12 192 161 148 139 137 162 181 209 256 323 142 285 292 317 322 265 341 7 30 28 54 77 72 65 71 51 34 27 28 19 17 5 9 12 7 4 1 360 357 354
278 272 349 357 206 191 167 154 150 152 150 156 239 15 320 307 265 262 297 302 350 101 72 57 54 57 62 62 46 34 37 28 20 13 20 6 3 7 9 7 2 360 357 355 354
258 238 245 223 213 197 172 150 105 49 15 15 351 24 2 253 109 323 270 210 69 17 51 30 55 36 31 32 30 27 27 25 19 18 9 360 4 5 10 7 2 358 354 354 353
236 224 226 217 206 200 195 227 336 85 39 27 25 17 359 198 21 326 289 69 50 44 52 48 31 31 26 26 35 32 26 18 16 15 5 4 3 7 7 3 359 356 354 352 351
227 221 215 205 214 209 222 346 198 205 49 30 22 1 345 332 0 327 317 46 27 30 24 24 23 25 23 22 27 28 22 14 4 5 7 3 355 3 5 3 1 359 357 354 352
219 220 217 216 231 208 295 229 221 222 87 336 347 351 323 1 21 356 9 39 34 28 20 20 22 21 23 19 15 25 13 7 6 10 5 12 358 4 5 359 358 359 355 353 353
219 215 215 211 238 248 262 243 238 107 260 325 16 105 12 31 41 4 29 31 25 22 31 18 15 6 14 19 16 15 12 12 14 11 0 3 0 7 9 357 356 357 356 354 354
222 219 219 220 239 249 245 248 250 297 303 1 54 59 66 18 46 60 45 41 48 31 23 27 25 17 13 21 28 21 17 15 18 13 7 12 3 2 1 359 0 358 355 354 354
230 231 223 224 253 227 231 264 288 292 340 0 11 33 32 16 38 43 36 27 36 34 27 36 21 23 16 19 32 12 8 14 13 10 3 9 360 1 8 6 2 357 355 355 355
231 225 242 242 229 218 227 281 294 322 336 12 23 23 26 18 32 36 42 31 20 25 24 23 22 19 15 19 19 15 19 14 7 1 357 3 3 3 9 9 4 358 356 356 356
228 234 235 242 232 213 239 281 306 331 3 31 29 23 26 32 37 40 26 28 17 14 23 17 25 34 24 22 24 15 15 18 7 7 2 10 4 7 11 4 359 357 357 357 356
233 236 242 238 225 207 244 303 311 313 333 2 5 16 25 31 45 40 35 26 23 26 39 28 26 34 27 32 27 21 20 14 13 5 1 355 360 1 359 359 358 357 357 357 358
233 233 246 240 220 217 256 277 238 220 221 249 1 47 43 57 46 43 40 38 32 31 41 36 37 26 30 26 17 19 16 16 11 10 1 356 358 8 6 0 358 358 359 359 1
240 235 250 243 231 239 253 241 224 222 198 174 67 22 63 63 58 62 57 43 45 39 33 33 36 24 20 27 28 24 15 15 9 7 360 355 357 11 5 2 1 359 0 2 4
247 254 254 249 246 261 253 268 271 304 311 104 67 51 67 69 68 70 62 56 53 47 38 34 32 23 20 24 25 17 17 15 11 7 1 357 356 5 2 1 1 0 1 3 4
247 245 250 257 257 266 284 290 306 325 348 7 42 55 60 66 64 64 63 56 50 50 44 40 32 24 16 10 9 8 11 14 9 3 358 352 354 359 357 358 359 1 2 4 4
251 249 252 252 258 274 286 313 325 329 340 25 25 57 59 56 57 57 57 54 49 50 47 41 26 19 12 6 7 2 3 5 1 354 355 352 351 353 359 360 1 2 3 4 4
245 251 257 260 262 278 281 297 328 335 347 27 37 46 48 47 47 44 50 54 46 50 41 38 21 15 10 16 11 359 2 2 358 353 346 349 354 7 5 3 1 2 5 5 5
256 263 256 254 257 260 273 297 322 5 341 357 29 34 37 40 44 43 47 46 46 44 34 27 20 12 9 11 4 9 10 8 5 3 360 357 3 4 2 2 2 5 7 6 8